TimeMST,TemperatureF,Dew PointF,Humidity,Sea Level PressureIn,VisibilityMPH,Wind Direction,Wind SpeedMPH,Gust SpeedMPH,PrecipitationIn,Events,Conditions,WindDirDegrees,DateUTC
12:53 AM,-0.9,-7.1,75,30.04,10.0,Calm,Calm,-,N/A,,Clear,0,2013-01-12 07:53:00
1:53 AM,-0.0,-5.1,79,30.06,10.0,ENE,6.9,-,N/A,,Clear,60,2013-01-12 08:53:00
2:53 AM,-2.0,-6.0,83,30.07,10.0,ESE,3.5,-,N/A,,Clear,120,2013-01-12 09:53:00
3:53 AM,-7.1,-11.9,79,30.08,10.0,Calm,Calm,-,N/A,,Clear,0,2013-01-12 10:53:00
4:53 AM,-7.1,-13.0,75,30.10,10.0,NE,3.5,-,N/A,,Clear,50,2013-01-12 11:53:00
5:53 AM,-4.0,-9.9,76,30.10,10.0,ESE,3.5,-,N/A,,Clear,120,2013-01-12 12:53:00
6:53 AM,-9.0,-15.0,75,30.16,10.0,WSW,4.6,-,N/A,,Clear,240,2013-01-12 13:53:00
7:53 AM,-2.0,-9.0,72,30.14,10.0,SSE,5.8,-,N/A,,Clear,150,2013-01-12 14:53:00
8:53 AM,-0.9,-6.0,79,30.18,10.0,NNE,3.5,-,N/A,,Clear,30,2013-01-12 15:53:00
9:53 AM,5.0,-2.9,70,30.17,10.0,ENE,3.5,-,N/A,,Partly Cloudy,60,2013-01-12 16:53:00
10:53 AM,9.0,-0.0,67,30.18,10.0,WNW,3.5,-,N/A,,Partly Cloudy,290,2013-01-12 17:53:00
11:53 AM,12.9,1.9,62,30.15,10.0,NW,3.5,-,N/A,,Scattered Clouds,320,2013-01-12 18:53:00
12:53 PM,15.1,3.0,59,30.15,10.0,ENE,3.5,-,N/A,,Overcast,70,2013-01-12 19:53:00
1:53 PM,17.1,3.0,54,30.12,10.0,Calm,Calm,-,N/A,,Overcast,0,2013-01-12 20:53:00
2:53 PM,19.0,6.1,57,30.13,10.0,Variable,3.5,-,N/A,,Clear,0,2013-01-12 21:53:00
3:53 PM,18.0,7.0,62,30.16,10.0,North,4.6,-,N/A,,Clear,350,2013-01-12 22:53:00
4:53 PM,16.0,6.1,65,30.17,10.0,Calm,Calm,-,N/A,,Clear,0,2013-01-12 23:53:00
6:53 PM,5.0,-0.0,80,30.27,10.0,Calm,Calm,-,N/A,,Clear,0,2013-01-13 01:53:00
7:53 PM,3.0,-0.9,84,30.24,10.0,Calm,Calm,-,N/A,,Overcast,0,2013-01-13 02:53:00
8:53 PM,1.0,-4.0,79,30.25,10.0,ESE,4.6,-,N/A,,Mostly Cloudy,110,2013-01-13 03:53:00
11:53 PM,-2.9,-7.1,82,30.22,6.0,Calm,Calm,-,N/A,,Clear,0,2013-01-13 06:53:00